Weather in Santa Ana

Bolivia     13°44′35″S   65°26′04″W
temp.,
°C
wind,
m/s
gust,
m/s
humid.,
%
clouds,
%
prec.,
mm/h
press.,
hPa
HPBL,
m
17 may, tue
tue1723:00+19sse6135595 0.0 1021712
02:00+18sse4116083 0.0 1020696
05:00+17sse3964100 0.0 1020366
08:00+18sse31069100 0.0 1022738
11:00+22se68535 0.0 10221139
14:00+24se564733 0.0 10191430
17:00+22s366035 0.0 1018256
20:00+18s412638 0.0 1020349
18 may, wed
wed1823:00+18sse4155714 0.0 1022493
02:00+17sse4156033 0.0 1021535
05:00+16se4155766 0.0 1020597
08:00+17se4146313 0.0 1023835
11:00+22se71043100 0.0 10231229
14:00+24se683746 0.0 10191620
17:00+21sse485262 0.0 1018344
20:00+17s36605 0.0 101993
19 may, thu
thu1923:00+15s397597 0.0 1020187
02:00+14sse387975 0.0 1018169
05:00+13sse38705 0.0 1018159
08:00+14se385999 0.0 1020207
11:00+22ese353448 0.0 1019736
14:00+24se22287 0.0 10161216
17:00+23se014599 0.0 101411
20:00+17ese114990 0.0 101611
20 may, fri
fri2023:00+16s11514 0.0 101711
02:00+15s115419 0.0 101611
05:00+14sse225610 0.0 101714
08:00+16sse245999 0.0 1019109
11:00+23ese123951 0.0 1019570
14:00+26wsw11325 0.0 10161097
17:00+24nnw114890 0.0 101431
20:00+20wsw114883 0.0 101611
21 may, sat
sat2123:00+18e115244 0.0 101711
02:00+18ene115436 0.0 101611
05:00+17ene115591 0.0 101611
08:00+19ene11576 0.0 101859
11:00+25nnw234572 0.0 1018589
14:00+28nnw34435 0.0 10141107
17:00+27n11565 0.0 101330
20:00+22e12625 0.0 101511